Location: Newark
(11.5710°N, 104.9241°E)
Time: 01:28:13
(UTC+00:00)

LilacSat-2 - Visible Passes

Search period start: 03 April 2020 00:00
Search period end: 13 April 2020 00:00
Orbit: 514 x 534 km, 97.5° (Epoch: 02 April)

Date Brightness Start Highest point End Pass type
(mag) Time Alt. Az. Time Alt. Az. Time Alt. Az.
03 Apr ? 21:43:18 10° ENE 21:45:09 13° E 21:46:59 10° SE visible
07 Apr ? 22:26:26 10° NNE 22:30:13 67° ESE 22:33:59 10° S visible
08 Apr ? 22:14:21 10° NNE 22:17:58 41° E 22:21:33 10° S visible
09 Apr ? 22:02:28 10° NE 22:05:42 26° E 22:08:55 10° SSE visible
10 Apr ? 21:50:51 10° ENE 21:53:26 17° E 21:55:59 10° SE visible
11 Apr ? 21:39:57 10° E 21:41:09 11° E 21:42:21 10° ESE visible
